Location: Eaton Estates
(41.3089°N, 82.0057°W)
Time: 13:12:42
(UTC+00:00)

Meteor 2-10 - Pass Details

Date: 17 June 2021
Orbit: 738 x 868 km, 81.2° (Epoch: 26 July)

Event Time Altitude Azimuth Distance (km) Brightness Sun altitude
Rises 01:38:01 0° 353° (N) 3,183 8.0 -6.1°
Reaches altitude 10° 01:40:22 10° 356° (N) 2,260 7.1 -6.4°
Maximum altitude 01:45:24 65° 79° (ENE) 827 4.0 -7.2°
Drops below altitude 10° 01:50:29 10° 161° (SSE) 2,291 5.9 -7.9°
Enters shadow 01:51:33 - 162° (SSE) 2,709 6.3 -8.0°
